COSMOS 1275 DEB, 14557

Orbit data source: Space-Track

COSMOS 1275 DEB, 14557 is space debris in LEO originally from a launch on Thu, 04 Jun 1981 UTC launched from the Plesetsk Missile And Space Complex (PKMTR). Debris objects in space refer to the collection of defunct objects orbiting the Earth. Examples of debris include non-operational satellites, rocket bodies, and fragments generated from explosions, collisions, or faulty payload assembly.

Loading next visibility...
Identifier
14557, 1981-053JM
Orbit
LEO
Country
Flag of CISCIS
Related business
Manufacturer
Unknown
Mission
Spacecraft
Bus & Motor
Unknown
Mass
Unknown
Launch date (UTC)
1981-06-04 (44 years ago)
Launch vehicle
Unknown
Launch site
Plesetsk Missile And Space Complex (PKMTR)
Object type
Payload
Rocket body
Debris
Shape & HBR
Unknown shape, 0.1 m
Radar Cross Section
Small (<0.1 m²)

Expand to show TLE details & history
Last TLE update: 13 hours ago

TLE from 13 hours ago
0 COSMOS 1275 DEB
1 14557U 81053JM  25289.12833330  .00006307  00000-0  24479-2 0  9992
2 14557  82.7915 169.2872 0037462 283.6921 230.9884 14.29429203244914
Epoch: 2025-10-16T03:04Z
TLE epoch observation values (Epoch: 2025-10-16T03:04:47.997Z)
Latitude
25.46557°
Longitude
-85.24025°
Altitude
813.754 km
Speed
7.44 km/s
True Right ascension
23h 03m 24s
True Declination
25° 20' 00"
Sunlit
Object was in full shadow at epoch
Visualization orbit readout
Latitude
Unknown
Longitude
Unknown
Altitude
Unknown
Speed
Unknown
Apparent Right ascension
Unknown
Apparent Declination
Unknown
Sunlit
N/A
Visualization observer readout
Local Sidereal Time
10:28:50
Azimuth
Unknown
Elevation
Unknown
Doppler factor
Unknown
Orbital elements
Apogee altitude
817.575 km
Perigee altitude
763.863 km
Semi-major axis
7,168.856 km
Eccentricity
0.00375
Inclination
82.7915°
RAAN
169.2872°
Arg. of periapsis
283.6921°
True anomaly
230.65582°
Mean anomaly
230.9884°
Eccentric anomaly
230.82201°
Mean motion
3.57576 °/min
Orbital period
100.68 mins
BSTAR
0.0024479
Loading maneuver chart data...
Computing Atmospheric mass density...

Documentation

Showing up to 5 results
|